This is the latest recevied weather packets stored in our database for station/object K6GMW. If no packets are shown the sender has not sent any weather packets the latest 10 day(s).
| Time | Temp. | Humidity | Pressure | Rain* | Wind** | Luminosity | Snow |
|---|---|---|---|---|---|---|---|
| 1778103157 | 15.56° C | 91% | 1013.9 hPa | 0 mm | - | 72 W/m² | - |
| 1778102855 | 15.56° C | 91% | 1014.2 hPa | 0 mm | - | 83 W/m² | - |
| 1778102550 | 15.56° C | 91% | 1014.3 hPa | 0 mm | - | 58 W/m² | - |
| 1778102245 | 15.56° C | 90% | 1014.1 hPa | 0 mm | - | 78 W/m² | - |
| 1778101942 | 15.56° C | 90% | 1013.6 hPa | 0 mm | - | 109 W/m² | - |
| 1778101639 | 15.56° C | 90% | 1013.8 hPa | 0 mm | - | 86 W/m² | - |
| 1778101336 | 15.56° C | 90% | 1013.6 hPa | 0 mm | - | 98 W/m² | - |
| 1778101033 | 15.56° C | 90% | 1013.5 hPa | 0 mm | - | 80 W/m² | - |
| 1778100728 | 15.56° C | 90% | 1013.7 hPa | 0 mm | - | 78 W/m² | - |
| 1778100426 | 15.56° C | 90% | 1013.7 hPa | 0 mm | - | 70 W/m² | - |
| 1778100123 | 16.11° C | 89% | 1013.5 hPa | 0 mm | - | 59 W/m² | - |
| 1778099821 | 16.11° C | 89% | 1013.7 hPa | 0 mm | - | 72 W/m² | - |
| 1778099518 | 16.11° C | 89% | 1013.6 hPa | 0 mm | - | 72 W/m² | - |
| 1778099216 | 16.67° C | 87% | 1013.7 hPa | 0 mm | - | 78 W/m² | - |
| 1778098911 | 16.67° C | 88% | 1013.5 hPa | 0 mm | - | 147 W/m² | - |
| 1778098609 | 16.67° C | 87% | 1013.1 hPa | 0 mm | - | 176 W/m² | - |
| 1778098305 | 16.67° C | 87% | 1013.1 hPa | 0 mm | - | 210 W/m² | - |
| 1778098002 | 16.67° C | 87% | 1013.4 hPa | 0 mm | - | 225 W/m² | - |
| 1778097698 | 16.67° C | 87% | 1013.7 hPa | 0 mm | - | 293 W/m² | - |
| 1778097395 | 16.67° C | 88% | 1013.3 hPa | 0 mm | - | 189 W/m² | - |
| 1778097091 | 17.22° C | 90% | 1013.3 hPa | 0 mm | - | 150 W/m² | - |
| 1778096789 | 16.67° C | 91% | 1013.5 hPa | 0 mm | - | 235 W/m² | - |
| 1778096485 | 16.11° C | 91% | 1013.5 hPa | 0 mm | - | 181 W/m² | - |
| 1778096183 | 16.67° C | 91% | 1013.5 hPa | 0 mm | - | 180 W/m² | - |
| 1778095880 | 16.67° C | 91% | 1013.4 hPa | 0 mm | - | 137 W/m² | - |
* Rain latest hour (hover to see other rain measurements)
** Current wind speed in m/s (hover to see current wind gust speed)